This is the latest recevied weather packets stored in our database for station/object N3FU-13. If no packets are shown the sender has not sent any weather packets the latest 10 day(s).
| Time | Temp. | Humidity | Pressure | Rain* | Wind** | Luminosity | Snow |
|---|---|---|---|---|---|---|---|
| 1777915626 | 31.67° C | 43% | 1016 hPa | 0 mm | - | - | - |
| 1777914726 | 31.67° C | 44% | 1016.1 hPa | 0 mm | - | - | - |
| 1777913826 | 31.11° C | 45% | 1016.2 hPa | 0 mm | - | - | - |
| 1777912927 | 31.11° C | 46% | 1016.4 hPa | 0 mm | - | - | - |
| 1777912363 | 30.56° C | 48% | 1016.5 hPa | 0 mm | - | - | - |
| 1777912027 | 30.56° C | 48% | 1016.5 hPa | 0 mm | - | - | - |
| 1777911127 | 30° C | 48% | 1016.6 hPa | 0 mm | - | - | - |
| 1777910227 | 30° C | 49% | 1016.8 hPa | 0 mm | - | - | - |
| 1777909327 | 30° C | 52% | 1016.8 hPa | 0 mm | - | - | - |
| 1777908427 | 29.44° C | 53% | 1016.8 hPa | 0 mm | - | - | - |
| 1777907527 | 28.89° C | 55% | 1017 hPa | 0 mm | - | - | - |
| 1777906627 | 28.33° C | 58% | 1016.8 hPa | 0 mm | - | - | - |
| 1777905727 | 27.78° C | 60% | 1016.7 hPa | 0 mm | - | - | - |
| 1777904827 | 26.67° C | 63% | 1016.7 hPa | 0 mm | - | - | - |
| 1777903927 | 26.11° C | 65% | 1016.6 hPa | 0 mm | - | - | - |
| 1777903027 | 25.56° C | 68% | 1016.7 hPa | 0 mm | - | - | - |
| 1777902127 | 24.44° C | 70% | 1016.6 hPa | 0 mm | - | - | - |
| 1777901227 | 23.89° C | 71% | 1016.4 hPa | 0 mm | - | - | - |
| 1777900327 | 23.33° C | 75% | 1016.3 hPa | 0 mm | - | - | - |
| 1777899427 | 22.22° C | 77% | 1016.2 hPa | 0 mm | - | - | - |
| 1777898527 | 21.67° C | 80% | 1016.1 hPa | 0 mm | - | - | - |
| 1777897764 | 19.44° C | 86% | 1015.9 hPa | 0 mm | - | - | - |
| 1777897627 | 21.11° C | 83% | 1016.1 hPa | 0 mm | - | - | - |
| 1777896727 | 20° C | 86% | 1016.1 hPa | 0 mm | - | - | - |
| 1777895827 | 19.44° C | 86% | 1015.9 hPa | 0 mm | - | - | - |
* Rain latest hour (hover to see other rain measurements)
** Current wind speed in m/s (hover to see current wind gust speed)